This demonstration page uses our WeatherBlox Daily Observations layout. Learn more.

Left ArrowRight Arrow

39.08367, -84.50855

Hourly Observations for October 28, 2015

Temp ( °F °C ) Dew Point ( °F °C ) Humidity (%) Winds ( mph kmh ) Pressure ( in mb ) Visibility ( mi km ) Precip ( " mm )
12:07 am 00:07 Cloudy with Light Rain 55 12.8 53 11.7 93 93 ESE 13 20 29.91 1013 10 16 0.00 0.03
12:53 am 00:53 Cloudy with Heavy Rain 56 13.3 53 11.7 90 90 ESE 16 26 29.84 1011 3 5 0.05 1.27
1:12 am 01:12 Cloudy with Rain 55 13 54 12 94 94 ESE 12 19 29.83 1010 2 3 0.00 0.00
1:33 am 01:33 Cloudy with Heavy Rain 55 13 54 12 94 94 ESE 15 24 29.80 1009 3 5 0.00 0.00
1:53 am 01:53 Cloudy with Heavy Rain 56 13.3 55 12.8 97 97 SE 18 30 29.78 1009 4 6 0.16 4.06
2:31 am 02:31 Cloudy 56 13.3 56 13.3 100 100 SE 10 17 29.77 1008 10 16 0.05 1.27
2:53 am 02:53 Cloudy with Light Rain 56 13.3 55 12.8 97 97 SSE 14 22 29.74 1007 10 16 0.05 1.27
3:53 am 03:53 Cloudy with Light Rain 55 13 N/A N/A SE 15 24 29.70 1006 8 13 0.08 2.03
4:22 am 04:22 Cloudy with Heavy Rain 55 13 N/A N/A SE 9 15 29.68 1005 2 3 0.00 0.00
4:30 am 04:30 Cloudy with Heavy Rain 55 13 N/A N/A SSE 10 17 29.68 1005 2 3 0.00 0.00
4:49 am 04:49 Cloudy with Light Rain 55 13 N/A N/A SSE 7 11 29.68 1005 6 10 0.26 6.60
4:53 am 04:53 Cloudy with Light Rain 55 13 N/A N/A S 6 9 29.67 1005 7 11 0.27 6.86
5:53 am 05:53 Cloudy with Heavy Rain 55 13 N/A N/A SSW 3 6 29.67 1005 4 6 0.11 2.79
6:43 am 06:43 Cloudy with Heavy Rain 55 13 55 13 100 100 SSW 3 6 29.68 1005 2 3 0.00 0.00
6:53 am 06:53 Cloudy with Rain 56 13.3 56 13.3 100 100 S 6 9 29.66 1004 4 6 0.20 5.08
7:53 am 07:53 Cloudy with Light Rain 57 13.9 57 13.9 100 100 S 5 7 29.65 1004 7 11 0.04 1.02
8:18 am 08:18 Cloudy with Rain 57 14 57 14 100 100 SSE 7 11 29.65 1004 3 4 0.00 0.00
8:53 am 08:53 Cloudy with Light Rain 57 13.9 57 13.9 100 100 S 7 11 29.63 1004 3 4 0.06 1.52
9:14 am 09:14 Cloudy with Light Rain 57 14 57 14 100 100 SSW 6 9 29.65 1004 3 5 0.00 0.00
9:53 am 09:53 Cloudy with Mist and Fog 59 15 59 15 100 100 S 10 17 29.61 1003 4 6 0.04 1.02
10:53 am 10:53 Cloudy with Light Rain 60 15.6 60 15.6 100 100 S 9 15 29.61 1003 10 16 0.00 0.03
11:00 am 11:00 Cloudy with Light Rain 60 15.6 60 15.6 100 100 S 8 13 29.62 1003 2 3 0.00 0.03
11:53 am 11:53 Cloudy with Mist and Fog 62 16.7 62 16.7 100 100 S 12 19 29.59 1002 5 8 0.01 0.25
12:53 pm 12:53 Cloudy with Light Rain 63 17.2 63 17.2 100 100 SSW 12 19 29.58 1002 4 6 0.00 0.03
12:55 pm 12:55 Cloudy with Light Rain 63 17 63 17 100 100 S 13 20 29.59 1002 4 6 0.00 0.00
1:53 pm 13:53 Cloudy with Light Rain 65 18.3 63 17.2 93 93 SW 13 20 29.57 1001 5 8 0.01 0.25
2:07 pm 14:07 Mostly Cloudy 66 19 63 17 88 88 WSW 18 30 29.56 1001 10 16 0.00 0.00
2:53 pm 14:53 Mostly Cloudy 68 20 62 16.7 81 81 SW 17 28 29.56 1001 10 16 0.00 0.03
3:53 pm 15:53 Mostly Cloudy 67 19.4 60 15.6 79 79 SW 13 20 29.55 1001 10 16 0.00 0.03
4:53 pm 16:53 Mostly Cloudy 66 18.9 59 15 78 78 SW 12 19 29.57 1001 10 16 0.00 0.00
5:53 pm 17:53 Mostly Cloudy 65 18.3 58 14.4 78 78 SSW 13 20 29.57 1002 10 16 0.00 0.00
6:53 pm 18:53 Mostly Cloudy 64 17.8 58 14.4 81 81 SW 12 19 29.60 1002 10 16 0.00 0.03
7:53 pm 19:53 Cloudy 63 17.2 57 13.9 81 81 WSW 15 24 29.62 1003 10 16 0.00 0.00
8:53 pm 20:53 Clear 60 15.6 53 11.7 78 78 SW 10 17 29.64 1004 10 16 0.00 0.00
9:53 pm 21:53 Partly Cloudy 58 14.4 53 11.7 84 84 WSW 9 15 29.65 1004 10 16 0.00 0.00
10:53 pm 22:53 Cloudy 58 14.4 52 11.1 81 81 SSW 9 15 29.65 1004 10 16 0.00 0.00
11:53 pm 23:53 Cloudy with Light Rain 57 13.9 52 11.1 83 83 SW 7 11 29.65 1004 10 16 0.00 0.03

Powered by AerisWeather